SCP
0 0 0 0 0 0 0 0 0 0 0 0 0 0 0 0 0 0 0 0 0 0 0 0 0 0 0 0 0 0 0 0 0 0 0 0 0 0 0 0 0 0 0
0 0 0 0 0 0 0 0 0 0 0 0 0 0 0 0 0 0 0 0 0 0 0 0 0 0 0 0 0 0 0 0 0 0 0 0 0 0 0 0 0 0 0
0 0 0 0 0 0 0 0 0 0 0 0 0 0 0 0 0 0 0 0 0 0 0 0 0 0 0 0 0 0 0 0 0 0 0 0 0 0 0 0 0 0 0
0 0 0 0 0 0 0 0 0 0 0 0 0 0 0 0 0 0 0 0 0 0 0 0 0 0 0 0 0 0 0 0 0 0 0 0 0 0 0 0 0 0 0
0 0 0 0 0 0 0 0 0 0 0 0 0 0 0 0 0 0 0 0 0 0 0 0 0 0 0 0 0 0 0 0 0 0 0 0 0 0 0 0 0 0 0
0 0 0 0 0 0 0 0 0 0 0 0 0 0 0 0 0 0 0 0 0 0 0 0 0 0 0 0 0 0 0 0 0 0 0 0 0 0 0 0 0 0 0
0 0 0 0 0 0 0 0 0 0 0 0 0 0 0 0 0 0 0 0 0 0 0 0 0 0 0 0 0 0 0 0 0 0 0 0 0 0 0 0 0 0 0
0 0 0 0 0 0 0 0 0 0 0 0 0 0 0 0 0 0 0 0 0 0 0 0 0 0 0 0 0 0 0 0 0 0 0 0 0 0 0 0 0 0 0
0 0 0 0 0 0 0 0 0 0 0 0 0 0 0 0 0 0 0 0 0 0 0 0 0 0 0 0 0 0 0 0 0 0 0 0 0 0 0 0 0 0 0
0 0 0 0 0 0 0 0 0 0 0 0 0 0 0 0 0 0 0 0 0 0 0 0 0 0 0 0 0 0 0 0 0 0 0 0 0 0 0 0 0 0 0
0 0 0 0 0 0 0 0 0 0 0 0 0 0 0 0 0 0 0 0 0 0 0 0 0 0 0 0 0 0 0 0 0 0 0 0 0 0 0 0 0 0 0
0 0 0 0 0 0 0 0 0 0 0 0 0 0 0 0 0 0 0 0 0 0 0 0 0 0 0 0 0 0 0 0 0 0 0 0 0 0 0 0 0 0 0
0 0 0 0 0 0 0 0 0 0 0 0 0 0 0 0 0 0 0 0 0 0 0 0 0 0 0 0 0 0 0 0 0 0 0 0 0 0 0 0 0 0 0
0 0 0 0 0 0 0 0 0 0 0 0 0 0 0 0 0 0 0 0 0 0 0 0 0 0 0 0 0 0 0 0 0 0 0 0 0 0 0 0 0 0 0
0 0 0 0 0 0 0 0 0 0 0 0 0 0 0 0 0 0 0 0 0 0 0 0 0 0 0 0 0 0 0 0 0 0 0 0 0 0 0 0 0 0 0
0 0 0 0 0 0 0 0 0 0 0 0 0 0 0 0 0 0 0 0 0 0 0 0 0 0 0 0 0 0 0 0 0 0 0 0 0 0 0 0 0 0 0
0 0 0 0 0 0 0 0 0 0 0 0 0 0 0 0 0 0 0 0 0 0 0 0 0 0 0 0 0 0 0 0 0 0 0 0 0 0 0 0 0 0 0
0 0 0 0 0 0 0 0 0 0 0 0 0 0 0 0 0 0 0 0 0 0 0 0 0 0 0 0 0 0 0 0 0 0 0 0 0 0 0 0 0 0 0
0 0 0 0 0 0 0 0 0 0 0 0 0 0 0 0 0 0 0 0 0 0 0 0 0 0 0 0 0 0 0 0 0 0 0 0 0 0 0 0 0 0 0
0 0 0 0 0 0 0 0 0 0 0 0 0 0 0 0 0 0 0 0 0 0 0 0 0 0 0 0 0 0 0 0 0 0 0 0 0 0 0 0 0 0 0
0 0 0 0 0 0 0 0 0 0 0 0 0 0 0 0 0 0 0 0 0 0 0 0 0 0 0 0 0 0 0 0 0 0 0 0 0 0 0 0 0 0 0
0 0 0 0 0 0 0 0 0 0 0 0 0 0 0 0 0 0 0 0 0 0 0 0 0 0 0 0 0 0 0 0 0 0 0 0 0 0 0 0 0 0 0
0 0 0 0 0 0 0 0 0 0 0 0 0 0 0 0 0 0 0 0 0 0 0 0 0 0 0 0 0 0 0 0 0 0 0 0 0 0 0 0 0 0 0
0 0 0 0 0 0 0 0 0 0 0 0 0 0 0 0 0 0 0 0 0 0 0 0 0 0 0 0 0 0 0 0 0 0 0 0 0 0 0 0 0 0 0
0 0 0 0 0 0 0 0 0 0 0 0 0 0 0 0 0 0 0 0 0 0 0 0 0 0 0 0 0 0 0 0 0 0 0 0 0 0 0 0 0 0 0
0 0 0 0 0 0 0 0 0 0 0 0 0 0 0 0 0 0 0 0 0 0 0 0 0 0 0 0 0 0 0 0 0 0 0 0 0 0 0 0 0 0 0
Wind_Speed
4 4 4 5 7 8 9 9 9 10 10 11 11 11 11 11 11 11 12 12 12 12 13 13 13 14 14 15 15 15 15 15 15 15 15 14 14 15 14 12 11 12 15
4 6 5 6 8 9 9 9 9 10 10 11 11 11 11 11 11 11 12 12 12 12 12 13 13 14 14 14 14 14 14 15 14 13 11 12 13 14 14 13 13 11 14
5 6 6 6 7 9 9 9 10 10 10 10 10 11 10 11 11 11 11 11 11 12 12 13 13 13 14 14 14 14 14 14 12 9 7 9 12 13 14 14 14 14 14
5 5 6 6 8 9 10 10 10 10 10 10 10 10 10 11 11 11 11 11 12 12 12 12 13 13 13 13 13 13 13 13 10 6 7 9 10 13 13 14 14 14 14
5 5 6 6 8 9 9 9 10 10 10 10 10 10 10 11 11 11 11 11 11 12 12 12 12 12 12 13 13 13 12 11 7 7 9 9 10 12 13 13 14 14 14
5 5 6 6 8 9 9 9 10 10 10 10 10 10 10 11 11 11 11 11 11 11 12 12 12 12 12 12 12 12 11 8 6 9 9 9 9 12 13 13 13 13 14
5 5 6 7 8 9 9 9 9 9 10 10 10 10 10 11 11 11 10 11 11 11 12 12 11 12 12 12 12 11 10 6 8 9 8 9 10 12 12 12 12 13 13
4 4 5 6 7 9 9 9 8 9 9 9 9 10 10 10 10 10 10 10 11 11 11 11 11 11 12 12 12 11 9 6 7 8 8 8 10 11 12 12 12 12 13
4 4 4 5 6 8 8 8 8 8 9 9 9 9 9 9 10 10 10 10 10 11 11 11 11 11 11 11 11 11 9 6 6 6 7 7 9 11 12 12 12 12 13
4 4 4 4 5 6 7 8 8 8 8 9 9 9 9 9 9 9 9 9 10 10 10 11 11 11 11 11 11 10 7 4 7 7 5 7 10 11 12 12 12 13 13
3 3 3 4 4 5 5 7 7 7 8 8 8 8 7 6 6 6 8 8 9 10 10 11 11 11 10 10 10 8 4 4 6 5 6 9 10 11 12 12 12 12 12
4 3 3 3 3 4 4 4 4 4 4 5 5 6 4 4 4 5 8 8 9 9 10 10 10 9 6 5 6 4 3 5 5 5 6 8 9 10 11 11 11 11 11
5 3 2 3 3 4 3 3 3 2 3 4 5 5 4 4 4 4 3 4 5 6 5 7 6 4 4 4 3 4 4 4 4 4 6 9 9 9 10 10 10 11 11
5 4 3 3 3 3 3 3 3 3 2 3 3 4 4 3 3 3 2 3 3 3 4 3 3 5 5 5 5 5 5 3 3 4 6 8 9 9 9 9 10 10 10
5 4 3 3 4 4 4 3 3 3 2 3 3 3 4 3 3 3 2 2 3 3 3 3 4 5 5 5 4 5 5 5 4 4 4 8 8 8 9 9 9 9 9
5 5 4 4 4 4 4 3 3 3 2 2 3 4 4 3 3 3 3 3 3 3 3 3 4 4 4 4 4 4 5 5 4 5 4 6 9 9 9 9 9 9 9
6 5 5 4 4 5 5 4 3 3 2 2 2 3 4 4 4 3 3 3 3 3 3 4 5 4 4 4 4 4 4 4 4 5 4 4 5 7 9 8 8 8 8
5 6 5 4 5 5 4 4 3 3 3 2 2 3 4 4 4 4 3 3 3 3 3 3 4 4 4 3 3 3 3 4 4 4 4 4 4 4 6 8 7 7 7
5 5 6 5 5 5 5 4 4 3 3 2 2 2 3 4 4 4 3 3 3 3 3 3 4 4 4 4 4 3 3 4 3 4 5 5 5 4 4 6 8 8 7
4 5 5 5 5 5 4 4 3 3 2 2 2 3 4 3 4 4 3 4 3 3 3 3 4 4 4 4 4 4 3 4 3 4 4 4 4 5 4 4 4 5 8
4 5 5 6 6 5 4 4 4 3 2 2 3 4 4 3 3 3 3 4 3 3 4 4 4 5 4 3 3 3 3 3 3 3 3 3 4 4 4 4 3 3 3
5 5 6 6 6 6 4 4 3 4 3 2 3 3 3 3 3 3 4 3 3 3 4 4 4 3 2 1 1 2 2 2 2 2 2 2 3 3 3 4 3 3 3
4 5 5 6 6 6 5 4 4 3 3 2 3 3 3 3 4 3 4 4 3 3 3 4 4 4 3 2 0 1 2 2 2 2 2 2 2 2 2 2 3 3 3
4 4 5 6 6 6 6 6 7 5 5 3 3 3 4 3 4 3 3 4 4 3 3 4 3 3 4 3 1 1 1 1 2 2 2 1 1 1 1 2 2 2 3
3 4 4 6 6 6 6 6 6 5 4 3 4 5 4 4 4 4 4 3 3 3 3 4 3 3 3 3 2 1 1 0 1 2 2 2 1 0 1 1 1 1 2
3 4 4 6 6 6 6 6 6 6 6 5 5 4 4 3 3 4 4 4 4 3 3 3 3 4 3 3 2 1 1 1 1 1 1 2 2 1 1 1 1 1 1
Wind_Direction
158 151 158 150 138 127 120 117 115 115 112 111 111 110 109 106 103 101 98 96 93 92 90 88 87 87 84 82 79 77 76 74 73 71 69 68 71 74 71 67 72 78 76
156 158 155 140 132 127 121 117 112 112 111 111 110 109 109 108 105 102 100 98 96 95 92 90 88 86 84 83 80 78 77 76 73 70 71 75 70 72 71 62 61 74 76
147 153 156 137 128 127 124 121 116 114 113 111 110 109 108 107 106 104 103 100 97 96 94 93 91 88 85 83 81 80 79 77 72 68 76 82 79 73 74 72 73 76 76
146 152 154 136 131 128 128 125 120 116 114 112 110 110 110 109 107 103 103 102 99 96 95 94 92 89 87 85 83 81 79 76 68 65 78 78 81 76 76 75 75 76 76
144 154 147 134 132 130 129 128 124 121 118 114 112 111 112 111 109 106 104 102 99 96 94 94 92 91 89 88 85 82 79 75 66 73 77 76 78 77 76 76 74 73 73
145 153 146 138 133 131 127 129 127 124 122 118 115 114 113 112 110 108 104 101 99 98 98 98 96 94 91 89 87 83 78 71 84 80 78 76 76 75 75 76 76 75 74
143 150 148 137 133 130 126 125 126 126 125 122 120 118 115 113 112 109 105 103 102 101 101 101 99 98 94 92 90 84 74 55 76 80 76 75 73 75 77 77 77 75 74
134 135 140 131 129 127 125 121 124 123 122 121 120 118 115 112 112 109 106 104 103 103 103 102 100 98 96 94 91 85 71 58 81 80 78 77 69 75 79 78 77 77 75
124 125 130 143 140 129 123 119 115 117 117 114 111 110 108 105 105 108 106 105 105 104 104 103 99 95 94 93 90 84 73 54 80 79 78 75 69 76 79 80 79 77 75
119 124 125 130 142 146 138 122 113 111 112 110 104 99 98 101 100 100 107 103 104 104 104 104 102 97 92 90 86 79 71 74 81 80 75 72 68 76 77 78 79 78 76
128 129 133 131 130 131 135 125 117 107 106 111 107 99 106 116 115 107 95 95 101 102 101 101 100 97 95 90 82 77 77 78 80 73 71 67 72 76 76 77 79 78 77
159 145 136 130 123 124 118 126 126 119 121 124 127 125 119 112 100 101 89 85 91 97 98 94 96 102 101 102 93 90 88 83 79 75 69 62 72 76 76 76 78 78 78
165 149 136 137 133 127 121 115 116 114 113 117 119 122 124 116 110 103 106 106 108 111 110 107 113 107 102 98 98 93 85 82 79 77 69 60 67 72 75 76 76 77 77
165 160 146 140 136 132 123 118 114 116 112 114 115 117 125 122 117 111 107 110 114 118 118 116 113 108 104 102 100 95 89 83 80 78 70 60 66 72 75 75 76 76 76
173 167 155 144 143 136 127 117 110 111 114 118 121 117 118 123 125 120 112 106 107 115 124 121 115 111 106 100 94 94 91 85 84 85 83 65 63 70 76 76 75 75 74
184 178 164 156 150 139 132 127 117 111 115 115 118 119 118 118 121 123 115 111 112 117 123 125 119 113 104 98 93 92 92 92 88 86 85 80 66 64 69 73 74 73 72
190 180 172 165 152 146 142 136 124 117 117 111 115 123 121 120 122 121 119 117 110 116 123 124 118 113 105 101 95 85 84 86 89 86 82 78 80 68 64 66 67 68 69
189 178 172 165 156 151 142 137 129 127 123 115 119 123 124 125 125 124 121 115 115 121 123 126 127 124 117 108 96 84 79 82 82 82 81 76 68 67 69 59 60 61 64
192 181 172 167 162 155 147 139 132 128 120 117 123 124 125 125 129 126 121 117 129 125 120 117 119 122 118 104 91 81 74 74 73 76 75 70 62 57 63 63 57 53 53
190 184 174 168 167 160 153 140 127 122 124 128 132 127 127 130 136 128 123 124 132 127 121 120 116 110 111 107 100 81 69 69 64 63 67 69 62 55 57 60 63 59 50
184 183 177 170 169 166 165 161 150 154 147 148 139 134 134 129 134 131 127 130 132 131 129 129 124 115 105 113 116 106 90 81 73 62 58 62 63 55 52 54 51 53 55
188 186 181 176 172 175 176 171 163 160 155 152 137 129 132 135 135 135 134 133 136 133 131 131 128 128 113 117 142 152 152 152 101 60 55 55 54 54 51 49 49 49 45
187 188 184 178 176 176 170 159 143 141 144 151 153 145 148 142 138 137 143 140 141 141 140 143 146 143 147 133 62 218 185 174 145 140 85 63 50 47 50 43 41 37 36
196 187 184 176 176 175 173 166 161 166 165 170 169 153 145 148 143 138 141 145 145 144 148 153 152 151 155 151 133 19 348 99 172 160 164 123 62 37 35 32 31 29 29
200 190 183 176 174 174 173 170 173 173 166 157 159 151 150 153 153 147 144 148 149 148 155 154 152 150 159 160 155 145 108 82 205 188 185 189 202 210 18 6 12 15 19
192 186 182 178 175 174 171 172 177 175 168 159 160 160 159 157 159 157 157 156 155 151 158 163 162 159 156 155 154 153 151 166 190 197 190 205 234 232 256 256 283 342 347